TimeEST,TemperatureF,Dew PointF,Humidity,Sea Level PressureIn,VisibilityMPH,Wind Direction,Wind SpeedMPH,Gust SpeedMPH,PrecipitationIn,Events,Conditions,WindDirDegrees,DateUTC
12:00 AM,42.8,42.8,100,29.65,0.1,SSE,5.8,-,N/A,Fog,Fog,160,2013-01-30 05:00:00
1:00 AM,43,43,100,29.58,0,SE,5.8,,,Fog,Heavy Fog,140,2013-01-30 06:00:00
1:00 AM,42.8,42.8,100,29.58,0.1,SE,5.8,-,N/A,Fog,Fog,140,2013-01-30 06:00:00
2:00 AM,42.8,42.8,100,29.55,0.1,SSE,5.8,-,N/A,Fog,Fog,150,2013-01-30 07:00:00
2:30 AM,44.6,-9999,N/A,-9999,0.4,SSE,6.9,-,N/A,Fog,Fog,150,2013-01-30 07:30:00
2:47 AM,44.6,-9999,N/A,-9999,10.0,SSE,6.9,-,N/A,,Mostly Cloudy,150,2013-01-30 07:47:00
3:00 AM,44.6,44.6,100,29.51,10.0,South,5.8,-,N/A,,Mostly Cloudy,170,2013-01-30 08:00:00
4:00 AM,46.4,44.6,93,29.44,15.0,SSE,8.1,-,N/A,,Mostly Cloudy,160,2013-01-30 09:00:00
5:00 AM,46.4,44.6,93,29.41,12.0,SSE,3.5,-,N/A,,Mostly Cloudy,160,2013-01-30 10:00:00
6:00 AM,48.2,44.6,87,29.37,12.0,SSE,5.8,-,N/A,,Mostly Cloudy,160,2013-01-30 11:00:00
7:00 AM,53,49,82,29.34,15,South,8.1,,,,Partly Cloudy,180,2013-01-30 12:00:00
7:00 AM,53.6,50.0,88,29.34,15.0,South,6.9,-,N/A,,Overcast,180,2013-01-30 12:00:00
8:00 AM,57.2,50.0,77,29.31,15.0,SSW,15.0,-,N/A,,Overcast,200,2013-01-30 13:00:00
8:24 AM,57.2,-9999,N/A,-9999,15.0,SSW,16.1,-,N/A,Rain,Light Rain Showers,200,2013-01-30 13:24:00
9:00 AM,55.4,53.6,94,29.29,6.0,SW,16.1,21.9,N/A,Rain,Light Rain Showers,220,2013-01-30 14:00:00
9:08 AM,55.4,-9999,N/A,-9999,7.0,SW,12.7,21.9,N/A,Rain,Heavy Rain Showers,220,2013-01-30 14:08:00
9:18 AM,55.4,-9999,N/A,-9999,6.0,SW,15.0,20.7,N/A,Rain,Light Rain Showers,220,2013-01-30 14:18:00
10:00 AM,55.4,53.6,94,29.28,10.0,SSW,11.5,20.7,N/A,Rain,Light Rain Showers,210,2013-01-30 15:00:00
10:48 AM,55.4,-9999,N/A,-9999,15.0,SSW,12.7,-,N/A,,Overcast,200,2013-01-30 15:48:00
11:00 AM,55.4,53.6,94,29.25,15.0,SSW,10.4,-,N/A,,Overcast,200,2013-01-30 16:00:00
12:00 PM,55.4,53.6,94,29.24,15.0,SW,15.0,-,N/A,,Overcast,220,2013-01-30 17:00:00
1:00 PM,55,52,86,29.22,15,WSW,18.4,,,,Partly Cloudy,240,2013-01-30 18:00:00
1:00 PM,55.4,51.8,88,29.22,15.0,WSW,17.3,24.2,N/A,,Overcast,240,2013-01-30 18:00:00
2:00 PM,55.4,51.8,88,29.25,15.0,SW,12.7,19.6,N/A,,Overcast,230,2013-01-30 19:00:00
3:00 PM,55.4,51.8,88,29.25,15.0,SW,10.4,-,N/A,,Overcast,230,2013-01-30 20:00:00
4:00 PM,55.4,51.8,88,29.24,15.0,SW,11.5,18.4,N/A,,Overcast,230,2013-01-30 21:00:00
5:00 PM,55.4,51.8,88,29.23,15.0,SSW,9.2,-,N/A,,Overcast,200,2013-01-30 22:00:00
6:00 PM,55.4,50.0,82,29.22,15.0,SSW,10.4,-,N/A,,Overcast,210,2013-01-30 23:00:00
7:00 PM,54,50,83,29.16,15,SSW,8.1,,,,Overcast,200,2013-01-31 00:00:00
7:00 PM,55.4,50.0,82,29.16,15.0,SSW,8.1,-,N/A,,Overcast,200,2013-01-31 00:00:00
8:00 PM,53.6,50.0,88,29.16,15.0,SSW,10.4,-,N/A,,Overcast,210,2013-01-31 01:00:00
8:40 PM,53.6,-9999,N/A,-9999,15.0,SSW,9.2,-,N/A,Rain,Light Rain,210,2013-01-31 01:40:00
9:00 PM,53.6,50.0,88,29.13,15.0,SSW,10.4,-,N/A,Rain,Light Rain,210,2013-01-31 02:00:00
10:00 PM,51.8,50.0,94,29.07,15.0,SSW,10.4,-,N/A,,Overcast,200,2013-01-31 03:00:00
11:00 PM,50.0,50.0,100,29.03,15.0,South,6.9,-,N/A,,Overcast,180,2013-01-31 04:00:00
11:57 PM,50.0,-9999,N/A,-9999,15.0,WSW,23.0,32.2,N/A,,Overcast,250,2013-01-31 04:57:00